RH
93 96 96 94 89 82 84 85 87 94 90 91 92 91 91 91 90 85 94 99 93 88 99 98 98 99 91 87 82 75 69 68 81 64 76 72 66 97
96 100 96 91 84 90 91 92 93 92 92 84 91 93 91 87 99 99 99 99 100 100 100 100 100 98 93 85 78 72 68 76 88 69 69 82 76 98
95 91 92 91 94 85 85 86 86 87 93 89 89 86 84 84 88 96 97 98 100 99 100 99 100 97 92 87 82 74 71 85 87 91 93 98 100 100
87 92 95 97 82 78 83 86 87 85 86 91 90 85 85 87 90 93 89 88 95 100 98 99 99 97 94 87 82 75 78 92 89 86 92 100 100 100
77 96 94 86 79 82 84 87 91 89 87 88 89 85 85 86 93 99 100 99 100 99 100 99 100 98 93 88 80 77 80 92 90 98 90 97 96 93
97 92 84 80 72 79 82 79 79 84 87 89 88 88 90 89 91 90 98 100 99 99 99 99 100 100 96 88 82 80 86 92 90 99 100 94 92 95
87 82 79 76 74 78 75 74 81 88 87 90 90 93 96 96 96 95 97 99 96 98 99 99 100 100 100 94 88 83 85 96 96 98 100 100 96 91
79 78 76 72 74 74 69 73 76 84 88 90 90 88 89 91 93 97 99 100 98 94 100 99 99 100 99 97 93 89 88 89 95 94 100 99 93 88
70 66 67 66 65 64 68 73 75 78 79 83 88 91 95 92 92 93 96 100 99 97 99 99 100 99 99 99 95 92 88 88 89 90 96 100 98 90
61 61 62 66 67 68 73 78 82 85 85 83 84 85 87 90 92 94 100 100 100 100 100 99 96 97 99 98 95 93 89 83 76 79 77 78 86 86
68 68 67 66 71 77 78 83 90 88 87 85 82 84 86 85 93 100 100 100 99 99 99 99 92 89 88 89 91 90 88 85 73 62 66 74 69 79
71 71 74 72 76 79 74 78 84 86 88 86 82 80 78 79 86 99 100 100 100 99 97 97 90 85 81 82 83 82 82 84 83 67 70 93 80 85
70 72 73 75 76 73 71 77 82 89 88 85 85 84 78 72 70 74 81 95 100 99 99 96 87 83 82 70 71 75 75 74 90 81 82 96 88 92
72 72 73 74 75 73 74 78 88 96 93 91 89 84 73 68 64 61 60 65 82 98 99 99 99 87 93 86 71 69 72 79 89 83 78 80 95 92
80 77 77 78 79 79 79 79 87 100 98 96 93 89 74 71 69 56 57 60 59 71 84 100 100 99 93 92 72 70 62 74 82 91 78 73 87 90
90 88 86 87 89 90 89 84 82 91 93 98 92 88 82 82 78 66 61 70 77 70 72 76 100 100 100 98 88 79 65 59 64 94 87 79 83 91
100 100 100 100 98 97 95 90 85 84 79 81 91 87 81 80 81 77 78 91 90 94 89 74 81 88 91 86 79 74 76 69 60 68 93 85 92 97
100 100 100 100 100 100 98 94 93 88 81 81 85 83 80 81 83 89 98 100 100 93 79 100 87 86 81 68 65 64 61 62 63 68 70 91 80 78
100 100 100 100 100 100 100 97 88 85 83 79 77 76 78 82 88 93 96 99 98 99 90 100 100 99 96 96 63 65 72 68 70 83 76 75 78 60
100 100 100 100 100 100 100 100 87 88 88 84 80 83 84 84 88 96 91 94 99 100 98 94 100 100 98 86 85 81 78 82 79 80 80 76 72 68
100 100 100 100 100 100 100 100 95 92 93 92 90 89 90 92 92 94 99 92 97 100 99 98 88 85 97 99 98 89 75 70 58 74 79 84 86 81
100 100 100 100 100 100 100 100 100 100 99 98 96 95 97 100 99 98 90 94 94 94 95 85 89 92 100 99 99 100 87 74 62 56 80 83 67 78
99 100 100 100 100 100 100 100 100 100 100 100 100 100 100 100 98 99 99 100 99 95 90 90 92 99 98 100 100 100 100 94 85 72 70 64 53 61
Wind_Speed
12 13 14 11 9 9 9 9 6 2 2 3 3 3 1 7 9 10 7 6 6 6 5 8 11 8 8 11 13 14 16 17 21 20 18 20 22 25
11 16 11 7 7 9 9 10 10 9 3 5 3 3 4 10 12 10 8 8 7 7 9 10 9 9 9 10 10 10 14 15 20 21 15 18 23 26
14 10 7 9 10 8 8 9 10 11 8 5 4 3 7 11 12 10 11 10 10 8 10 11 12 12 12 10 9 8 10 9 12 19 7 18 25 26
10 7 12 11 10 10 11 11 11 10 7 3 4 6 8 11 13 10 8 10 12 10 10 12 13 11 9 8 7 5 5 5 7 7 20 21 25 24
13 14 15 14 12 12 11 12 12 9 7 4 6 9 9 10 12 12 11 12 12 12 11 12 11 10 11 8 6 5 4 4 5 4 2 2 5 7
19 17 18 17 15 15 14 12 9 8 7 6 8 9 8 8 10 11 13 12 12 11 12 13 12 13 11 10 8 5 4 4 4 4 5 6 5 6
20 19 19 17 16 14 13 10 9 8 7 9 7 6 7 5 6 6 10 13 14 12 11 12 14 16 14 11 9 5 5 6 6 7 9 7 6 6
22 19 16 16 15 13 11 10 10 10 11 11 10 10 9 6 7 8 9 7 4 4 7 12 15 17 15 12 10 8 8 7 9 10 9 9 10 9
21 19 18 15 14 11 9 9 9 9 9 10 11 11 8 7 8 9 10 10 8 10 8 10 13 18 17 15 14 12 9 9 9 10 12 10 10 11
20 19 18 16 12 11 11 10 10 9 9 7 9 8 9 10 12 13 11 13 13 14 11 5 10 14 16 17 16 14 12 11 10 9 10 10 10 12
18 17 15 13 12 11 10 10 9 7 7 5 5 7 8 9 8 10 11 11 6 6 9 7 9 10 10 15 15 14 13 12 11 11 11 11 11 13
15 14 13 12 12 11 8 7 7 8 8 8 7 8 9 8 7 8 10 11 9 4 8 10 7 7 4 10 11 11 13 13 11 11 11 12 13 15
18 16 15 14 14 10 8 8 7 6 7 8 9 9 9 9 9 8 8 9 12 14 7 7 4 7 6 3 4 10 13 13 13 12 13 14 13 14
17 16 16 15 13 11 10 8 8 8 9 10 11 10 10 10 9 9 9 9 10 13 15 10 7 12 8 3 4 7 14 13 15 15 15 16 16 15
15 15 14 14 13 11 9 9 9 11 12 13 14 12 10 9 9 9 9 10 9 10 11 12 14 12 13 8 3 6 6 12 16 19 18 18 19 18
14 15 16 15 13 13 12 11 12 14 16 17 16 11 10 11 9 9 8 9 9 10 11 10 12 14 17 17 15 14 10 5 7 19 18 16 17 21
21 19 19 20 18 17 15 15 16 17 17 16 16 15 13 11 11 9 9 8 9 6 8 6 10 11 14 16 16 18 15 14 13 9 19 20 19 20
19 23 22 24 24 24 21 20 19 18 17 17 18 15 16 13 12 10 9 8 9 11 9 8 8 8 10 15 21 21 16 17 15 13 13 20 23 24
18 20 21 23 23 24 23 24 22 19 17 16 15 16 14 14 13 11 9 11 9 11 11 11 12 9 3 3 5 10 20 16 14 14 16 17 19 16
17 20 22 22 24 25 26 25 21 17 17 18 17 15 16 16 16 16 15 12 10 14 14 13 17 18 17 6 4 3 5 14 16 16 17 17 18 17
22 23 23 24 24 24 24 22 18 16 17 18 18 17 17 18 17 17 18 14 12 13 17 20 18 13 15 16 11 13 14 11 11 15 14 15 13 12
22 24 24 24 23 23 23 21 18 17 18 18 19 19 17 18 17 16 15 17 21 21 21 18 13 13 15 13 13 13 13 12 10 12 15 16 6 6
16 18 18 19 20 20 19 18 20 19 20 20 19 19 17 15 16 16 17 17 21 21 20 21 18 16 17 17 16 15 17 17 15 13 17 19 20 22
Wind_Direction
183 183 193 175 182 199 189 190 179 171 249 87 144 137 325 325 319 320 323 293 288 295 285 245 238 231 255 285 299 305 317 318 319 305 279 248 213 196
182 179 167 171 209 217 203 202 193 188 203 185 143 193 316 323 323 330 317 299 294 286 277 266 276 274 280 290 293 311 317 323 332 319 284 225 196 185
173 171 174 218 222 207 196 185 183 192 194 195 221 295 312 331 330 327 320 304 290 284 277 280 280 281 280 282 289 305 319 330 340 3 246 174 174 168
186 227 226 214 204 199 196 192 196 198 208 233 261 289 311 316 306 301 296 294 285 273 264 269 266 268 270 271 289 295 322 318 346 24 66 95 121 138
217 221 210 208 199 197 201 194 187 197 206 223 271 297 293 297 304 306 301 288 287 277 264 257 257 256 252 254 267 283 303 284 321 343 166 83 111 139
206 200 205 202 206 200 199 200 191 193 202 210 236 261 269 285 300 312 313 304 294 279 268 257 248 245 244 241 244 255 260 270 252 226 199 181 166 163
184 189 197 202 205 201 202 202 201 203 216 219 217 247 260 283 303 311 297 298 298 287 266 250 233 234 245 245 240 238 228 234 230 207 190 174 184 189
182 187 193 196 195 198 203 208 217 216 215 212 209 224 239 266 280 282 277 286 295 304 268 255 236 233 240 242 245 245 234 231 225 226 217 193 178 174
187 186 185 191 194 194 190 195 208 216 226 228 230 226 239 242 251 260 269 273 262 272 269 273 254 244 239 241 241 242 244 241 227 227 227 220 202 194
185 189 192 191 195 199 196 208 214 219 227 240 250 247 247 247 257 264 268 271 272 269 251 241 254 249 243 240 238 236 237 237 229 225 234 234 223 208
184 189 193 193 194 194 202 207 216 226 227 234 251 253 256 260 265 265 257 258 272 267 241 220 252 244 246 237 231 238 232 233 229 225 224 223 215 208
185 187 190 194 189 194 201 209 221 228 222 229 252 251 247 250 255 243 242 240 235 280 250 201 227 223 232 235 234 234 237 219 224 224 217 221 220 210
193 190 194 193 192 195 204 207 221 227 224 246 259 257 254 250 251 248 246 243 240 254 264 224 261 227 236 272 240 225 237 222 218 218 213 214 222 221
205 203 201 200 205 214 222 226 215 223 224 237 256 258 263 262 259 259 255 253 243 242 258 252 237 226 221 257 246 236 234 226 225 228 224 221 216 224
219 219 212 207 211 217 226 230 210 219 231 239 247 252 260 265 264 258 262 264 260 257 250 245 249 240 231 234 248 240 240 238 235 235 232 228 219 213
220 217 216 215 224 228 223 224 228 230 236 240 248 250 245 247 264 255 254 262 262 261 258 252 239 247 246 247 250 254 250 236 251 234 234 231 224 221
232 226 218 219 217 218 223 222 223 230 231 235 238 242 241 242 259 258 249 244 256 265 281 263 248 246 247 251 249 246 247 246 251 254 230 232 225 223
233 228 223 222 221 222 221 230 229 227 232 235 235 241 244 239 246 243 242 250 251 267 271 263 270 248 266 265 251 249 244 242 242 242 239 235 241 232
233 231 227 225 229 235 231 229 225 222 227 233 234 241 244 242 237 229 234 245 253 264 257 260 250 234 211 247 287 253 242 242 237 232 235 231 241 253
246 236 236 236 239 239 235 230 228 224 220 227 235 241 246 244 239 234 233 236 252 268 268 254 247 244 229 236 284 294 266 240 237 238 242 247 255 257
260 252 253 253 252 249 245 242 237 237 234 232 234 238 242 243 243 244 246 247 252 262 259 257 253 261 263 260 267 262 271 275 265 247 247 242 246 257
263 260 259 254 255 255 256 255 249 243 240 239 241 242 244 240 242 249 252 248 248 247 253 273 273 255 240 234 250 261 272 277 271 254 237 232 220 217
297 287 277 268 268 266 262 257 251 246 245 245 245 248 250 248 249 254 259 257 253 256 257 262 263 248 247 237 246 266 276 273 268 263 254 245 244 239